EW1708 Weather Reports


Display with metric or nautical units.
time (UTC)temp
F
wind
direction
speed
MPH
gust
MPH
rain 1hr
in
rain 24hr
in
rain mn
in
humidity
%
barometer
mb
20260901001657 70 263 16.0 24.0 0.00 0.20 0.20 65 1010.4
20260901000643 70 302 15.0 24.0 0.00 0.20 0.20 65 1010.4
20260831234540 71 307 23.0 34.0 0.00 0.20 0.20 61 1010.0
20260831233555 71 284 21.0 34.0 0.00 0.20 0.20 62 1009.8
20260831232620 71 286 21.0 33.0 0.00 0.20 0.20 63 1009.8
20260831231624 71 279 23.0 38.0 0.00 0.21 0.20 63 1009.8
20260831230612 72 281 25.0 39.0 0.00 0.22 0.20 62 1009.8
20260831222211 71 273 24.0 41.0 0.00 0.23 0.20 64 1009.0
20260831221211 70 282 28.0 41.0 0.00 0.23 0.20 68 1009.0
20260831220153 69 270 26.0 38.0 0.00 0.23 0.20 68 1008.7
20260831214007 67 268 23.0 34.0 0.00 0.23 0.20 75 1008.7
20260831212946 65 279 23.0 38.0 0.00 0.23 0.20 77 1008.6
20260831211942 66 271 27.0 38.0 0.00 0.23 0.20 77 1008.5
20260831211001 65 267 25.0 37.0 0.00 0.23 0.20 78 1008.4
20260831205941 64 265 24.0 37.0 0.00 0.23 0.20 79 1008.3
20260831204927 64 247 24.0 36.0 0.00 0.24 0.20 80 1008.2
20260831203858 65 254 25.0 36.0 0.00 0.24 0.20 79 1007.9
20260831200636 65 259 29.0 43.0 0.00 0.24 0.20 79 1007.0
20260831195620 65 271 26.0 40.0 0.00 0.30 0.20 79 1006.7
20260831194637 65 267 24.0 40.0 0.00 0.45 0.20 79 1006.6
20260831192531 64 265 24.0 35.0 0.00 1.52 0.20 81 1006.1
20260831191520 64 294 25.0 35.0 0.00 1.54 0.20 81 1006.0
20260831190453 64 258 23.0 41.0 0.00 1.54 0.20 81 1005.7
20260831185503 64 235 24.0 41.0 0.00 1.54 0.20 80 1005.5
20260831183337 63 249 19.0 35.0 0.00 1.55 0.20 83 1005.1
20260831182400 63 250 21.0 32.0 0.00 1.55 0.20 83 1004.9
20260831181337 63 254 20.0 36.0 0.00 1.55 0.20 84 1004.9
20260831175228 62 242 21.0 39.0 0.00 1.55 0.20 85 1004.4
20260831174159 62 249 21.0 39.0 0.00 1.55 0.20 85 1004.2
20260831173150 62 226 22.0 38.0 0.00 1.55 0.20 85 1003.9
20260831172142 62 232 23.0 38.0 0.00 1.55 0.20 86 1003.7
20260831171114 61 244 25.0 38.0 0.00 1.55 0.20 85 1003.5
20260831170044 62 235 25.0 43.0 0.00 1.54 0.19 85 1003.3
20260831165033 62 244 27.0 43.0 0.00 1.54 0.19 85 1003.2
20260831164048 61 233 25.0 39.0 0.00 1.54 0.19 86 1003.0
20260831163014 61 232 27.0 37.0 0.00 1.54 0.19 85 1003.1
20260831160854 60 226 24.0 38.0 0.00 1.53 0.18 85 1002.7
20260831155824 59 240 20.0 32.0 0.00 1.53 0.18 88 1002.7
20260831154810 57 215 19.0 27.0 0.03 1.53 0.18 89 1002.7
20260831153830 56 217 16.0 25.0 0.03 1.53 0.18 88 1002.6
20260831151711 55 211 18.0 31.0 0.06 1.51 0.17 89 1002.9
20260831150714 54 201 16.0 31.0 0.09 1.51 0.16 89 1002.9
20260831145651 54 179 12.0 22.0 0.11 1.49 0.14 89 1003.1
20260831144657 54 202 10.0 20.0 0.06 1.46 0.11 89 1003.4
20260831143632 54 252 10.0 19.0 0.11 1.45 0.11 88 1003.8
20260831142656 54 207 8.0 16.0 0.12 1.41 0.07 88 1004.3
20260831141639 54 186 7.0 13.0 0.18 1.40 0.05 88 1004.5
20260831133226 57 228 14.0 22.0 0.00 1.34 0.00 76 1004.8
20260831132248 57 234 14.0 20.0 0.00 1.34 0.00 75 1005.1
20260831131309 57 214 14.0 20.0 0.00 1.34 0.00 75 1005.2
20260831125145 56 211 16.0 21.0 0.00 1.34 0.00 75 1005.3
20260831124115 56 217 14.0 21.0 0.00 1.34 0.00 76 1005.4
20260831123044 55 232 10.0 18.0 0.00 1.34 0.00 78 1005.5
20260831122054 54 201 9.0 17.0 0.00 1.34 0.00 79 1005.4
20260831115919 54 196 5.0 13.0 0.00 1.34 0.00 80 1005.2
20260831114856 54 206 5.0 11.0 0.00 1.34 0.00 80 1005.3
20260831113840 54 204 4.0 9.0 0.00 1.34 0.00 81 1005.2
20260831112842 55 209 5.0 11.0 0.00 1.34 0.00 80 1005.6
20260831110637 55 218 8.0 13.0 0.00 1.34 0.00 79 1005.8
20260831105647 55 221 10.0 15.0 0.00 1.34 0.00 78 1005.9
20260831104659 56 224 11.0 16.0 0.00 1.34 0.00 77 1006.2
20260831103652 56 230 11.0 19.0 0.00 1.34 0.00 77 1006.2
20260831102648 56 240 12.0 20.0 0.00 1.34 0.00 78 1006.3
20260831101617 55 241 12.0 20.0 0.00 1.34 0.00 77 1006.4
20260831100608 55 226 10.0 15.0 0.00 1.34 0.00 79 1006.7
20260831095544 54 231 8.0 13.0 0.00 1.34 0.00 81 1006.8
20260831094559 54 219 9.0 13.0 0.00 1.34 0.00 82 1006.7
20260831093549 55 226 11.0 16.0 0.00 1.34 0.00 82 1006.8
20260831092522 55 204 12.0 17.0 0.00 1.34 0.00 82 1006.8
20260831091514 55 220 10.0 16.0 0.00 1.34 0.00 84 1006.9
20260831090508 55 220 10.0 15.0 0.00 1.34 0.00 86 1006.9
20260831085438 55 207 9.0 16.0 0.00 1.34 0.00 87 1006.8
20260831084409 55 208 9.0 16.0 0.00 1.34 0.00 88 1006.9
20260831083349 55 215 7.0 12.0 0.00 1.34 0.00 89 1006.9
20260831082318 55 193 6.0 12.0 0.00 1.34 0.00 89 1007.0
20260831081331 55 221 6.0 12.0 0.00 1.34 0.00 88 1007.0
20260831080351 56 232 5.0 9.0 0.00 1.34 0.00 88 1007.0
20260831075347 56 190 5.0 10.0 0.00 1.34 0.00 88 1006.9
20260831074313 56 208 6.0 12.0 0.00 1.34 0.00 88 1006.9
20260831073322 56 215 8.0 12.0 0.00 1.34 0.00 88 1006.9
20260831072331 56 209 6.0 12.0 0.00 1.34 0.00 89 1006.9
20260831071307 56 215 6.0 11.0 0.00 1.34 0.00 90 1007.0
20260831070249 56 223 5.0 10.0 0.00 1.34 0.00 90 1007.1
20260831065259 56 200 4.0 11.0 0.00 1.34 0.00 89 1007.2
20260831064237 57 202 6.0 11.0 0.00 1.34 0.00 88 1007.4
20260831063243 57 211 7.0 11.0 0.00 1.34 0.00 87 1007.4
20260831062231 57 208 7.0 10.0 0.00 1.34 0.00 87 1007.3
20260831061224 57 218 6.0 10.0 0.00 1.34 0.00 88 1007.3
20260831060238 57 216 6.0 9.0 0.00 1.34 0.00 88 1007.3
20260831055259 58 236 7.0 9.0 0.00 1.34 1.34 88 1007.3
20260831054237 58 215 7.0 11.0 0.00 1.34 1.34 87 1007.4
20260831053203 59 225 7.0 11.0 0.00 1.34 1.34 87 1007.4
20260831052205 59 218 7.0 12.0 0.00 1.34 1.34 87 1007.3
20260831051146 59 228 8.0 12.0 0.00 1.34 1.34 87 1007.4
20260831050119 59 230 8.0 12.0 0.00 1.34 1.34 87 1007.5
20260831045102 59 237 7.0 12.0 0.00 1.34 1.34 87 1007.6
20260831042914 60 224 7.0 11.0 0.00 1.34 1.34 86 1007.7
20260831041905 60 225 7.0 11.0 0.00 1.34 1.34 85 1007.8
20260831035947 60 225 7.0 12.0 0.00 1.34 1.34 84 1008.0
20260831034917 61 239 8.0 12.0 0.00 1.34 1.34 84 1008.0
20260831033904 60 214 8.0 12.0 0.00 1.34 1.34 84 1008.1
20260831032916 60 228 5.0 10.0 0.00 1.34 1.34 84 1008.2
20260831030744 61 237 5.0 7.0 0.00 1.34 1.34 82 1008.1
20260831024701 62 238 5.0 8.0 0.00 1.34 1.34 80 1007.9
20260831023632 62 233 5.0 8.0 0.00 1.34 1.34 80 1007.8
20260831022611 63 267 5.0 8.0 0.00 1.34 1.34 78 1007.3
20260831020438 64 263 6.0 11.0 0.00 1.34 1.34 78 1007.6
20260831015405 64 251 7.0 11.0 0.00 1.34 1.34 78 1007.5
20260831014341 65 273 5.0 9.0 0.00 1.34 1.34 77 1006.8
20260831012232 66 259 7.0 12.0 0.00 1.34 1.34 78 1007.0
20260831011248 66 269 9.0 13.0 0.00 1.34 1.34 79 1006.9
20260831010239 66 240 7.0 13.0 0.00 1.34 1.34 81 1007.0
20260831005205 66 279 7.0 11.0 0.00 1.34 1.34 83 1007.5
20260831004155 67 240 5.0 9.0 0.00 1.34 1.34 85 1007.9